Location: ???? ?????
(30.0052°N, 31.2891°E)
Time: 12:43:33
(UTC+00:00)

Cosmos 1331 Rocket - Pass Details

Date: 07 October 2022
Orbit: 748 x 778 km, 74.0° (Epoch: 08 December)

Event Time Altitude Azimuth Distance (km) Brightness Sun altitude
Exits shadow 02:46:26 12° 313° (NW) 2,124 5.9 -14.9°
Drops below altitude 10° 02:47:30 10° 325° (NW) 2,270 6.1 -14.7°
Sets 02:51:15 0° 352° (N) 3,202 7.2 -13.9°
